EHI
0 0 0 0 0 0 0 0 0 0 0 0 0 0 0 0 1 5 15 28 48 68 76 75 72 67 66 69 72 69 58 46 42 37 28 20 12 5 2 1 0 0 0 0
0 0 0 0 0 0 0 0 0 0 0 0 0 0 0 0 1 5 13 25 45 66 74 70 63 58 58 62 64 62 53 44 38 32 23 15 7 3 1 0 0 0 0 0
0 0 0 0 0 0 0 0 0 0 0 0 0 0 0 0 0 3 9 19 38 60 69 62 52 46 46 47 47 45 42 37 29 20 12 6 2 0 0 0 0 0 0 0
0 0 0 0 0 0 0 0 0 0 0 0 0 0 0 0 0 1 6 13 29 47 56 53 44 36 33 30 27 28 29 27 18 9 4 1 0 0 0 0 0 0 0 0
0 0 0 0 0 0 0 0 0 0 0 0 0 0 0 0 0 0 3 11 23 35 43 42 33 24 20 17 16 18 19 16 11 7 4 2 0 0 0 0 0 0 0 0
0 0 0 0 0 0 0 0 0 0 0 0 0 0 0 0 0 0 3 12 23 32 35 31 20 12 9 9 10 11 11 8 6 5 3 2 0 0 0 0 0 0 0 0
0 0 0 0 0 0 0 0 0 0 0 0 0 0 0 0 0 0 3 14 27 34 33 23 10 5 4 5 6 6 5 3 2 1 1 1 0 0 0 0 0 0 0 0
0 0 0 0 0 0 0 0 0 0 0 0 0 0 0 0 0 0 3 16 35 42 33 18 6 2 2 2 2 2 1 1 0 0 0 0 0 0 0 0 0 0 0 0
0 0 0 0 0 0 0 0 0 0 0 0 0 0 0 0 0 0 4 21 45 50 33 15 5 1 0 1 1 0 0 0 0 0 0 0 0 0 0 0 0 0 0 0
0 0 0 0 0 0 0 0 0 0 0 0 0 0 0 0 0 0 6 26 50 52 33 14 5 1 0 0 0 0 0 0 0 0 0 0 0 0 0 0 0 0 0 0
0 0 0 0 0 0 0 0 0 0 0 0 0 0 0 0 0 0 7 27 49 52 33 12 3 0 0 0 0 0 0 0 0 0 0 0 0 0 0 0 0 0 0 0
0 0 0 0 0 0 0 0 0 0 0 0 0 0 0 0 0 0 6 24 47 52 33 12 2 0 0 0 0 0 0 0 0 0 0 0 0 0 0 0 0 0 0 0
0 0 0 0 0 0 0 0 0 0 0 0 0 0 0 0 0 0 5 21 42 47 30 10 2 0 0 0 0 0 0 0 0 0 0 0 0 0 0 0 0 0 0 0
0 0 0 0 0 0 0 0 0 0 0 0 0 0 0 0 0 0 5 19 37 39 22 7 1 0 0 0 0 0 0 0 0 0 0 0 0 0 0 0 0 0 0 0
0 0 0 0 0 0 0 0 0 0 0 0 0 0 0 0 1 1 6 18 31 29 15 4 0 0 0 0 0 0 0 0 0 0 0 0 0 0 0 0 0 0 0 0
0 0 0 0 0 0 0 0 0 0 0 0 0 0 0 0 1 2 7 17 25 20 10 3 0 0 0 0 0 0 0 0 0 0 0 0 0 0 0 0 0 0 0 0
0 0 0 0 0 0 0 0 0 0 0 0 0 0 0 0 1 2 5 13 18 13 5 1 0 0 0 0 0 0 0 0 0 0 0 0 0 0 0 0 0 0 0 0
0 0 0 0 0 0 0 0 0 0 0 0 0 0 1 0 0 2 3 6 8 6 2 0 0 0 0 0 0 0 0 0 0 0 0 0 0 0 0 0 0 0 0 0
0 0 0 0 0 0 0 0 0 0 0 0 0 0 0 0 0 1 2 2 2 1 0 0 0 0 0 0 0 0 0 0 0 0 0 0 0 0 0 0 0 0 0 0
0 0 0 0 0 0 0 0 0 0 0 0 0 0 0 0 0 0 1 1 0 0 0 0 0 0 0 0 0 0 0 0 0 0 0 0 0 0 0 0 0 0 0 0
0 0 0 0 0 0 0 0 0 0 0 0 0 0 0 0 0 0 0 0 0 0 0 0 0 0 0 0 0 0 0 0 0 0 0 0 0 0 0 0 0 0 0 0
0 0 0 0 0 0 0 0 0 0 0 0 0 0 0 0 0 0 0 0 0 0 0 0 0 0 0 0 0 0 0 0 0 0 0 0 0 0 0 0 0 0 0 0
0 0 0 0 0 0 0 0 0 0 0 0 0 0 0 0 0 0 0 0 0 0 0 0 0 0 0 0 0 0 0 0 0 0 0 0 0 0 0 0 0 0 0 0
0 0 0 0 0 0 0 0 0 0 0 0 0 0 0 0 0 0 0 0 0 0 0 0 0 0 0 0 0 0 0 0 0 0 0 0 0 0 0 0 0 0 0 0
0 0 0 0 0 0 0 0 0 0 0 0 0 0 0 0 0 0 0 0 0 0 0 0 0 0 0 0 0 0 0 0 0 0 0 0 0 0 0 0 0 0 0 0
0 0 0 0 0 0 0 0 0 0 0 0 0 0 0 0 0 0 0 0 0 0 0 0 0 0 0 0 0 0 0 0 0 0 0 0 0 0 0 0 0 0 0 0
Wind_Speed
11 12 15 15 16 15 10 11 13 11 5 9 12 12 9 7 9 11 11 13 15 14 11 10 9 10 10 10 11 11 11 11 9 7 7 7 6 6 6 7 8 8 7 7
10 15 14 10 10 12 13 15 15 12 8 9 12 13 11 10 11 11 11 12 14 13 12 11 10 10 11 11 11 11 11 11 9 7 6 5 7 6 6 6 7 7 7 6
17 5 8 11 12 13 15 15 15 14 10 11 13 18 16 12 11 11 12 13 15 16 15 13 12 11 11 11 11 9 10 9 9 9 7 8 6 6 6 5 5 5 5 5
15 11 8 12 14 15 15 13 14 14 14 14 11 14 14 12 12 14 15 15 15 15 15 14 14 13 11 10 10 10 10 10 9 9 8 8 6 5 5 3 4 4 3 3
12 12 14 15 14 13 13 8 11 13 14 15 13 14 14 9 12 15 16 16 15 14 14 14 13 13 12 11 10 10 11 10 9 8 9 7 6 5 5 4 4 2 3 2
15 7 10 12 12 11 10 8 10 12 13 18 17 16 14 10 12 12 12 14 14 13 13 13 12 13 12 11 10 10 11 11 9 9 8 7 8 6 5 3 2 1 1 0
18 15 12 9 10 9 11 11 10 11 13 15 13 12 12 8 8 9 7 11 13 14 14 14 15 14 13 13 12 11 12 11 10 9 8 8 7 6 5 2 2 1 1 1
18 16 17 15 18 14 14 16 12 11 11 10 8 10 8 3 5 7 7 9 13 15 15 16 16 15 15 14 13 12 12 11 11 10 9 7 6 3 4 3 2 1 3 3
10 11 8 12 14 17 17 17 17 17 17 16 13 13 7 8 11 11 10 11 14 15 16 16 17 16 16 15 14 13 12 11 10 10 9 7 6 5 4 2 1 1 2 3
10 9 8 7 9 12 15 13 10 12 14 17 17 17 13 9 9 8 9 12 14 15 16 17 17 16 15 14 13 12 11 11 10 10 7 6 6 4 2 1 2 3 4 4
7 11 10 9 12 14 13 13 13 13 14 15 15 11 5 3 5 6 7 10 14 17 18 17 16 16 16 14 13 12 12 11 10 9 8 6 4 3 1 2 3 3 4 5
1 7 11 11 4 5 10 14 15 14 15 15 15 14 5 3 4 6 6 7 12 15 17 17 17 17 16 15 14 13 12 11 9 9 7 6 3 1 2 3 4 5 5 6
2 5 9 11 9 8 8 8 10 11 12 14 16 13 2 2 3 4 5 5 10 14 15 16 16 16 16 15 13 13 11 10 9 8 6 4 2 1 2 3 4 5 6 7
5 6 10 13 6 3 4 6 7 10 13 15 17 16 10 7 8 7 6 5 9 13 15 15 15 15 14 13 13 12 11 9 8 6 5 3 1 1 3 4 5 6 7 8
4 8 9 11 10 11 12 13 13 14 15 17 18 18 15 13 13 12 9 6 9 13 14 15 14 13 13 12 12 11 10 8 7 5 3 1 1 2 4 5 6 7 8 9
2 7 8 12 12 13 17 17 18 18 18 20 21 20 14 11 11 10 9 7 10 12 13 13 13 13 12 11 11 10 9 8 5 3 1 1 2 3 4 5 6 7 8 8
4 6 8 12 8 10 15 12 13 14 14 15 16 13 13 13 11 10 9 6 6 9 12 12 12 11 10 9 9 9 8 6 4 1 1 1 3 4 5 6 6 6 7 7
7 7 6 8 6 11 2 7 6 8 6 7 9 11 11 10 8 9 9 3 3 10 12 13 12 12 11 10 9 8 7 4 2 1 1 2 4 5 5 5 6 6 5 5
8 8 7 7 9 8 2 6 8 7 5 8 10 11 10 7 3 8 12 10 11 14 14 14 14 14 11 9 8 7 5 3 1 1 2 4 5 5 5 6 5 5 5 6
6 8 8 7 7 6 5 8 8 8 7 10 12 12 10 8 4 6 10 14 16 16 15 15 14 13 11 8 6 5 4 3 2 4 5 5 5 6 6 5 5 5 5 6
7 7 9 9 8 5 8 10 10 8 5 13 13 11 9 6 7 9 13 15 16 16 16 14 13 10 9 7 5 4 4 4 5 5 6 6 6 5 5 5 5 6 6 7
5 5 6 6 7 2 10 10 8 11 14 13 10 6 6 10 12 14 14 15 16 15 14 13 11 10 8 6 5 5 6 5 5 6 6 6 5 4 5 5 5 6 7 7
4 3 4 4 4 7 9 9 10 10 10 7 4 4 10 13 14 15 15 14 14 13 12 11 11 10 7 5 4 6 6 5 6 6 6 5 5 5 5 5 6 6 6 7
2 2 5 6 3 6 8 8 8 6 4 4 6 9 13 15 15 15 13 13 12 12 11 10 10 9 7 6 7 7 6 5 5 5 5 4 4 5 5 5 6 6 7 7
3 2 4 5 3 3 5 7 6 6 8 10 12 13 15 16 15 14 13 13 11 11 10 8 8 9 9 8 8 7 6 5 5 5 4 4 5 5 4 5 6 7 7 7
2 3 4 2 3 2 3 5 7 9 11 12 14 15 14 14 15 14 13 12 11 10 9 9 9 9 9 9 8 7 6 5 5 5 5 4 5 5 5 5 4 2 3 2
Wind_Direction
190 214 218 219 225 251 263 259 251 246 250 261 251 247 240 222 230 231 224 213 206 199 177 168 167 166 165 164 159 154 147 143 145 142 141 133 123 118 106 93 84 79 72 68
195 225 230 231 227 235 239 243 248 248 235 258 261 254 244 234 235 235 230 220 211 187 173 171 170 170 172 165 156 150 150 150 150 138 125 118 118 109 99 94 86 80 77 69
221 229 211 208 209 221 232 242 252 259 256 247 259 253 237 222 229 231 232 226 214 198 187 179 175 173 168 161 157 149 143 142 135 130 124 123 121 132 129 118 104 86 84 81
233 222 188 209 219 224 237 238 252 259 260 256 241 268 243 213 218 225 225 220 215 201 192 185 177 170 163 153 146 140 138 134 134 140 141 142 143 135 117 117 104 108 85 69
219 220 214 223 228 226 246 255 249 253 259 265 249 256 262 211 232 231 222 216 211 198 189 182 173 162 150 143 138 134 132 129 130 127 129 131 121 118 125 126 118 128 104 73
238 207 225 234 235 230 236 238 244 248 252 251 249 252 259 221 232 244 220 207 202 190 179 168 157 147 141 138 135 135 132 127 127 124 122 117 116 119 124 127 119 190 129 94
227 218 215 228 222 200 216 229 235 231 226 245 240 246 260 260 242 254 238 202 191 181 170 161 155 152 146 144 142 141 136 131 131 125 118 114 117 127 128 128 107 313 318 315
218 222 212 216 231 231 217 231 248 264 263 263 221 238 261 226 253 259 247 210 185 178 171 166 162 158 153 150 148 147 142 137 135 126 118 118 131 127 106 81 14 355 331 349
233 232 205 216 227 237 239 235 247 261 270 276 269 269 258 235 241 241 231 207 186 177 171 167 164 160 157 155 154 152 144 141 137 129 128 126 111 85 84 108 265 322 331 308
256 247 210 201 219 225 246 248 240 246 258 262 262 259 259 250 250 238 222 205 184 174 170 167 166 163 158 155 151 149 147 142 138 135 127 114 108 104 92 334 359 328 309 304
241 242 226 208 222 227 211 226 234 250 257 268 271 272 318 268 285 274 237 204 184 177 171 167 166 162 157 153 152 152 148 144 138 124 116 112 103 86 28 301 296 295 297 295
276 256 245 231 229 301 252 238 237 248 256 258 268 276 298 270 288 285 257 205 184 176 171 167 164 160 158 158 158 154 149 142 131 120 113 105 96 94 281 287 294 290 288 288
330 249 241 224 207 206 232 239 254 256 264 265 268 277 143 175 270 288 273 211 178 169 169 166 163 163 163 161 156 149 143 133 121 114 112 114 139 219 280 294 291 290 289 289
284 260 263 268 319 351 253 241 248 258 258 265 266 279 284 292 302 307 292 234 180 172 170 168 165 165 162 157 151 142 132 126 118 116 119 128 168 266 285 287 285 287 289 289
298 259 261 275 289 285 279 274 270 267 272 278 283 288 296 311 314 310 292 244 190 178 174 170 165 159 154 150 141 133 127 117 109 109 113 128 223 271 280 286 287 288 288 290
297 275 271 265 264 272 273 270 269 268 270 273 276 279 300 319 316 306 291 250 206 185 172 163 157 150 146 141 133 124 113 104 99 104 157 186 291 286 288 289 291 294 298 304
254 260 264 266 267 278 264 271 274 275 276 282 287 310 335 325 325 322 310 276 216 174 155 147 141 134 126 121 116 108 101 99 105 151 228 293 299 303 305 307 312 323 331 338
259 255 259 267 250 248 74 44 349 307 300 335 337 343 341 339 347 358 345 320 149 135 130 125 118 109 104 103 100 98 99 109 137 181 310 325 322 322 333 343 2 7 4 358
230 239 248 252 251 259 175 51 359 320 297 24 358 349 349 350 342 39 28 52 89 104 106 104 105 105 104 101 101 101 103 121 130 40 8 7 359 1 17 32 31 19 4 357
190 221 245 238 256 260 80 24 337 284 250 36 359 347 344 334 324 58 61 78 86 90 95 100 101 102 102 103 105 104 110 106 67 45 40 41 43 44 48 43 25 18 1 356
190 202 229 241 247 269 44 351 318 267 351 358 346 343 346 14 55 89 88 87 91 94 96 98 99 98 100 104 106 107 101 79 66 69 72 68 67 64 52 39 26 9 3 2
250 237 229 243 246 252 26 347 334 327 329 326 334 352 64 90 95 95 94 95 96 96 96 99 100 99 100 107 117 105 86 82 86 88 85 74 57 43 48 34 24 18 0 1
253 305 311 287 312 4 353 332 320 313 309 321 351 74 108 107 103 100 98 97 97 100 103 106 108 107 109 113 106 91 88 93 97 95 85 74 63 48 31 18 24 20 12 5
205 252 271 277 298 354 355 353 358 0 13 52 89 106 110 108 108 107 107 106 107 110 112 116 119 118 114 102 86 84 91 97 99 91 83 70 51 49 48 22 27 23 14 7
289 261 261 267 314 13 27 26 38 62 80 90 97 105 110 113 112 112 111 111 113 117 123 127 120 111 103 96 90 90 95 98 92 82 67 54 51 45 42 51 38 22 38 16
256 274 286 329 25 37 59 59 76 88 91 97 101 101 103 107 111 113 114 118 122 124 125 119 112 108 103 98 90 85 84 80 77 74 56 46 45 39 33 39 74 96 32 4